[[{"header":{"parameterUnit":"m.s-1","parameterCategory":1,"la1":30.2991,"la2":30.254,"lo1":-89.0895,"lo2":-89.0444,"dy":0.0017,"dx":0.0017,"nx":28,"ny":28,"refTime":"2025-08-01T03:00:00:Z","depth":0,"parameterNumber":2,"parameterNumberName":"U-component_of_WINDS"},"data":[0,0,0,0,0,0,0,0,0,0,0,0,0,0,0,0,0,0,0,0,0,0,0,0,0,0,0,0,0,0,0,0,0,0,0,0,0,0,0,0,0,0,0,0,0,0,0,0,0,0,0,0,0,0,0,0,0,0,1.4257,1.4258,0,1.4362,1.4364,1.4365,1.4361,1.4359,1.4358,1.4356,1.447,1.4475,1.4479,0,0,0,0,0,0,0,0,0,0,0,0,0,1.4056,1.406,1.4256,1.4258,1.4259,1.4362,1.4364,1.4365,1.4361,1.4359,1.4357,1.4356,1.4469,1.4474,1.448,0,0,0,0,0,0,0,0,0,0,0,0,0,1.4151,1.4061,1.4256,1.4269,1.4271,1.4362,1.4364,1.4365,1.4361,1.4359,1.4357,1.4355,1.4467,1.4474,1.448,1.4566,0,0,1.4501,1.4503,0,0,0,0,0,0,0,0,1.4145,1.4158,1.4266,1.4269,1.4271,1.4346,1.4335,1.4433,1.4362,1.4327,1.4356,1.4354,1.4431,1.4441,1.4466,1.4572,1.4576,1.4501,1.4505,1.4508,1.451,0,0,0,0,0,0,0,1.4139,1.4154,1.4298,1.4268,1.4271,1.4272,1.4283,1.4353,1.4391,1.433,1.433,1.4342,1.4432,1.4459,1.4468,1.4578,1.4501,1.4507,1.4511,1.4514,1.4761,1.4763,0,0,0,0,0,0,1.4129,1.4148,1.4295,1.4302,1.4201,1.4277,1.4289,1.4324,1.439,1.4398,1.4344,1.4342,1.4449,1.4461,1.4472,1.4578,1.4508,1.4514,1.4518,1.4758,1.4761,1.4764,0,0,0,0,0,0,1.4124,1.4142,1.4291,1.4225,1.4244,1.4283,1.4322,1.4328,1.4354,1.44,1.4408,1.4365,1.4448,1.4463,1.4543,1.4581,1.4517,1.4523,1.4755,1.4759,1.4763,1.4788,0,0,0,0,0,0,1.4119,1.414,1.4172,1.4226,1.4247,1.4358,1.4325,1.4331,1.4365,1.4363,1.4421,1.4429,1.4447,1.4533,1.4549,1.4589,1.4528,1.4752,1.4757,1.4762,1.4784,1.4793,1.48,0,0,0,0,0,1.4112,1.4176,1.4174,1.4191,1.4288,1.436,1.4373,1.439,1.4368,1.4402,1.4431,1.4427,1.4574,1.4541,1.4559,1.4602,1.475,1.4756,1.4761,1.4781,1.4791,1.48,0,0,0,0,0,0,1.4128,1.4183,1.4181,1.4265,1.4307,1.4359,1.4401,1.4401,1.4452,1.4448,1.447,1.4483,1.4563,1.4591,1.4552,1.4689,1.4659,1.4669,1.4668,1.4678,1.4686,1.4678,1.4534,0,0,0,0,0,1.4141,1.4193,1.424,1.4309,1.433,1.4362,1.4394,1.4404,1.445,1.4469,1.4504,1.4551,1.4607,1.4644,1.4699,1.4788,1.4802,1.4827,1.4835,1.4841,1.4849,1.4899,1.4912,1.4783,1.4783,1.4783,0,0,1.4169,1.4206,1.4238,1.4313,1.4348,1.4403,1.4378,1.4437,1.4479,1.4479,1.4555,1.4583,1.4636,1.4721,1.4761,1.4747,1.4888,1.4848,1.4853,1.4858,1.4907,1.4919,1.493,1.4787,1.4786,1.4786,0,0,1.4249,1.4281,1.4343,1.4377,1.4429,1.4449,1.4464,1.4516,1.4534,1.4611,1.4612,1.4663,1.476,1.4798,1.483,1.4924,1.4923,1.4941,1.4982,1.5031,1.5041,1.505,1.5084,1.5096,1.4949,1.4949,1.495,0,1.4278,1.4359,1.4375,1.4435,1.4468,1.4468,1.4532,1.4565,1.4633,1.4657,1.464,1.4762,1.4798,1.4892,1.4915,1.494,1.4959,1.4935,1.5038,1.5047,1.5056,1.5089,1.5101,1.4951,1.4951,1.4951,1.4951,0,1.4393,1.445,1.4493,1.4556,1.4595,1.4657,1.4683,1.4721,1.4727,1.475,1.483,1.4872,1.4936,1.4959,1.4967,1.5055,1.5045,1.5033,1.5003,1.507,1.5101,1.5114,1.4954,1.4954,1.4953,1.4952,0,0,1.4486,1.4556,1.4572,1.4601,1.4658,1.4703,1.4765,1.4825,1.4858,1.4905,1.4958,1.504,1.5029,1.5066,1.5078,1.512,1.5193,1.5103,1.5105,1.5119,1.5293,1.5302,1.5316,1.5192,1.5194,1.5196,1.5289,0,1.4572,1.4679,1.4695,1.4791,1.4844,1.4846,1.49,1.4942,1.4965,1.5015,1.5042,1.5099,1.508,1.5102,1.5144,1.5175,1.5228,1.5168,1.5244,1.5246,1.523,1.5332,1.5342,1.5427,1.5301,1.5303,1.5305,0,1.4686,1.4734,1.4834,1.4884,1.4907,1.4955,1.5012,1.5059,1.5107,1.5122,1.5162,1.5169,1.5235,1.5202,1.5295,1.5254,1.5286,1.5305,1.5309,1.5317,1.528,1.5344,1.5455,1.5468,1.5324,1.5323,1.5321,0,1.4744,1.4834,1.4906,1.4931,1.499,1.5024,1.5051,1.5097,1.5132,1.5182,1.5206,1.5264,1.5296,1.5342,1.5365,1.5339,1.5456,1.5425,1.5471,1.5471,1.5496,1.5494,1.5614,1.5516,1.5516,1.5515,1.5515,0,1.4838,1.49,1.4933,1.4977,1.5047,1.5065,1.5134,1.5161,1.5201,1.5252,1.5257,1.5305,1.5332,1.5385,1.5404,1.5478,1.5493,1.5507,1.5511,1.5507,1.5505,1.5528,1.5523,1.5519,1.5518,1.5517,1.5517,0,1.4915,1.4939,1.5018,1.5068,1.5082,1.5131,1.5175,1.5219,1.5241,1.5306,1.5322,1.5359,1.5421,1.5448,1.5525,1.5538,1.5623,1.5623,1.5606,1.5607,1.5652,1.5647,1.5791,1.5811,1.5699,1.57,1.5701,0,1.4974,1.5021,1.5076,1.5109,1.5136,1.519,1.5226,1.5246,1.5284,1.5342,1.5379,1.5441,1.5491,1.5591,1.5626,1.5685,1.5687,1.5733,1.5696,1.569,1.5688,1.5685,1.5691,1.574,1.5741,1.5742,1.5743,0,1.5076,1.5085,1.5135,1.519,1.5232,1.5277,1.532,1.5348,1.5376,1.5418,1.548,1.5519,1.5597,1.5659,1.572,1.575,1.5752,1.5754,1.5768,1.5764,1.5752,1.576,1.5625,1.5751,1.575,1.5749,1.5749,1.5749,1.5146,1.5188,1.5232,1.5288,1.5323,1.5364,1.5407,1.5435,1.5487,1.5551,1.556,1.5627,1.5675,1.5757,1.5789,1.5843,1.5832,1.5852,1.5858,1.5862,1.5865,1.5743,1.5855,1.5855,1.5854,1.5854,1.5854,0,1.5248,1.5276,1.5328,1.5388,1.5432,1.5428,1.5476,1.5514,1.5572,1.5616,1.5665,1.5738,1.5798,1.5837,1.5898,1.5933,1.5936,1.5949,1.5947,1.5954,1.5871,1.5853,1.5946,1.5946,1.5946,1.5946,1.5946,1.5946,1.5306,1.5377,1.5392,1.5481,1.551,1.5574,1.5602,1.5641,1.5675,1.5755,1.5804,1.5829,1.5871,1.5935,1.5991,1.6001,1.6023,1.6037,1.6047,1.5969,1.596,1.595,1.5934,1.6042,1.6042,1.6125,1.6126,1.6126]},{"header":{"parameterUnit":"m.s-1","parameterCategory":1,"la1":30.2991,"la2":30.254,"lo1":-89.0895,"lo2":-89.0444,"dy":0.0017,"dx":0.0017,"nx":28,"ny":28,"refTime":"2025-08-01T03:00:00:Z","depth":0,"parameterNumber":3,"parameterNumberName":"V-component_of_WINDS"},"data":[0,0,0,0,0,0,0,0,0,0,0,0,0,0,0,0,0,0,0,0,0,0,0,0,0,0,0,0,0,0,0,0,0,0,0,0,0,0,0,0,0,0,0,0,0,0,0,0,0,0,0,0,0,0,0,0,0,0,2.4414,2.4414,0,2.4426,2.4427,2.4427,2.4415,2.4414,2.4414,2.4413,2.4425,2.4425,2.4426,0,0,0,0,0,0,0,0,0,0,0,0,0,2.4377,2.4377,2.4414,2.4414,2.4414,2.4426,2.4427,2.4427,2.4415,2.4414,2.4414,2.4413,2.4424,2.4425,2.4426,0,0,0,0,0,0,0,0,0,0,0,0,0,2.4391,2.4378,2.4413,2.4409,2.4409,2.4426,2.4427,2.4427,2.4415,2.4414,2.4414,2.4413,2.4424,2.4425,2.4426,2.4447,0,0,2.443,2.443,0,0,0,0,0,0,0,0,2.439,2.4393,2.441,2.441,2.441,2.4418,2.4418,2.4434,2.4415,2.4413,2.4413,2.4413,2.4423,2.4424,2.4428,2.4448,2.4448,2.443,2.443,2.4431,2.4431,0,0,0,0,0,0,0,2.4389,2.4392,2.4419,2.441,2.441,2.4406,2.4408,2.4421,2.4422,2.4413,2.4412,2.4414,2.4423,2.4427,2.4428,2.4448,2.443,2.4431,2.4431,2.4432,2.4485,2.4486,0,0,0,0,0,0,2.4389,2.4391,2.4418,2.4419,2.4398,2.4408,2.4409,2.4416,2.4421,2.4422,2.4414,2.4413,2.4425,2.4427,2.4429,2.4453,2.4431,2.4432,2.4433,2.4485,2.4486,2.4486,0,0,0,0,0,0,2.4388,2.4392,2.4418,2.4405,2.4408,2.4409,2.4417,2.4417,2.4421,2.4423,2.4423,2.4419,2.4425,2.4427,2.4443,2.4453,2.4432,2.4433,2.4484,2.4485,2.4486,2.4502,0,0,0,0,0,0,2.4387,2.4391,2.44,2.4405,2.4409,2.4432,2.4418,2.4418,2.4423,2.4422,2.4427,2.4427,2.4425,2.4441,2.4444,2.4454,2.4434,2.4483,2.4484,2.4486,2.4501,2.4504,2.4507,0,0,0,0,0,2.4386,2.4404,2.44,2.4404,2.4419,2.4433,2.4435,2.4432,2.4424,2.4432,2.4433,2.4427,2.4452,2.4443,2.4446,2.4457,2.4482,2.4484,2.4486,2.45,2.4503,2.4507,0,0,0,0,0,0,2.4399,2.4404,2.4401,2.4421,2.4427,2.4431,2.4441,2.4436,2.4444,2.4442,2.4439,2.444,2.4456,2.4458,2.4448,2.4477,2.4466,2.4468,2.4475,2.4479,2.4482,2.448,2.4435,0,0,0,0,0,2.4404,2.4416,2.4419,2.4437,2.444,2.444,2.4446,2.4443,2.4449,2.4451,2.4453,2.4458,2.4467,2.4473,2.4482,2.4501,2.4502,2.451,2.4513,2.4516,2.4517,2.4527,2.4531,2.4492,2.4492,2.4492,0,0,2.4415,2.4419,2.4427,2.4439,2.4443,2.4454,2.4442,2.4454,2.4462,2.4453,2.4468,2.447,2.4475,2.4493,2.45,2.4495,2.4528,2.4518,2.452,2.452,2.4529,2.4533,2.4536,2.4493,2.4493,2.4493,0,0,2.444,2.4445,2.446,2.4464,2.4471,2.4471,2.4475,2.448,2.4481,2.4496,2.4489,2.4498,2.4514,2.4518,2.4522,2.4548,2.4542,2.4551,2.4566,2.4575,2.4578,2.4581,2.459,2.4593,2.4553,2.4553,2.4553,0,2.4452,2.4469,2.4467,2.448,2.4486,2.4479,2.4493,2.4497,2.4506,2.451,2.4503,2.4523,2.4526,2.4544,2.4551,2.4554,2.4558,2.455,2.4578,2.4581,2.4583,2.4592,2.4595,2.4554,2.4554,2.4554,2.4554,0,2.4484,2.4495,2.4506,2.4516,2.4522,2.4536,2.4535,2.4542,2.454,2.454,2.4555,2.4559,2.4568,2.4572,2.4569,2.459,2.4586,2.4579,2.4567,2.4588,2.4596,2.4599,2.4556,2.4555,2.4555,2.4555,0,0,2.4517,2.4525,2.4529,2.4533,2.454,2.4549,2.4562,2.4571,2.4577,2.4583,2.4593,2.4607,2.46,2.4605,2.4603,2.4611,2.4631,2.4603,2.4603,2.4608,2.4653,2.4658,2.4662,2.4628,2.4628,2.4629,2.4653,0,2.4541,2.4564,2.4563,2.4584,2.4595,2.4588,2.4599,2.4605,2.4605,2.4614,2.4615,2.4624,2.4615,2.4618,2.4627,2.4627,2.464,2.4626,2.4636,2.4637,2.4635,2.4666,2.4671,2.4693,2.4656,2.4656,2.4657,0,2.4573,2.4581,2.4604,2.4609,2.4613,2.4624,2.4632,2.464,2.4646,2.4646,2.4651,2.4647,2.4659,2.4648,2.4664,2.4654,2.4658,2.4659,2.466,2.4661,2.4648,2.4666,2.4701,2.4704,2.4662,2.4661,2.4661,0,2.4594,2.4611,2.4626,2.463,2.4637,2.4644,2.4647,2.4652,2.4657,2.4664,2.4668,2.4676,2.468,2.4686,2.4684,2.4676,2.4701,2.4689,2.47,2.4701,2.4705,2.4705,2.474,2.4709,2.4709,2.4709,2.4709,0,2.4621,2.4635,2.4636,2.4645,2.466,2.4658,2.4673,2.4675,2.468,2.4689,2.4684,2.4692,2.469,2.4698,2.4697,2.471,2.4712,2.4712,2.4711,2.4712,2.4712,2.4714,2.4712,2.471,2.471,2.471,2.471,0,2.4647,2.4648,2.4664,2.467,2.4671,2.4682,2.4686,2.4695,2.4695,2.4707,2.471,2.471,2.472,2.4719,2.4729,2.4728,2.4745,2.4743,2.4743,2.4742,2.4753,2.4752,2.4791,2.4795,2.4762,2.4763,2.4763,0,2.4664,2.4675,2.4681,2.4687,2.4691,2.4701,2.4707,2.4705,2.4711,2.4718,2.4726,2.4735,2.4742,2.4758,2.4759,2.4767,2.4764,2.4777,2.4765,2.4766,2.4764,2.4763,2.4763,2.4779,2.4779,2.478,2.478,0,2.4694,2.4694,2.4703,2.4712,2.4719,2.4726,2.4732,2.4738,2.4737,2.4744,2.4754,2.4759,2.477,2.4779,2.4787,2.4789,2.4784,2.4784,2.4787,2.4787,2.4787,2.4787,2.4749,2.4783,2.4783,2.4782,2.4782,2.4782,2.4715,2.4724,2.473,2.474,2.4745,2.4751,2.4759,2.4761,2.477,2.4779,2.4778,2.4789,2.4793,2.4803,2.4806,2.4814,2.481,2.4814,2.4815,2.4816,2.4817,2.4786,2.4816,2.4816,2.4816,2.4816,2.4816,0,2.4744,2.4748,2.4757,2.4766,2.4774,2.477,2.4777,2.4783,2.4793,2.4799,2.4806,2.4817,2.4826,2.4828,2.4836,2.4842,2.484,2.4844,2.4843,2.4844,2.4821,2.4817,2.4846,2.4846,2.4846,2.4846,2.4846,2.4846,2.476,2.4775,2.4776,2.4792,2.4796,2.4807,2.4811,2.4817,2.4821,2.4834,2.4841,2.4843,2.4847,2.4855,2.4863,2.4863,2.4866,2.4871,2.487,2.4849,2.4846,2.4843,2.4839,2.4872,2.4872,2.4892,2.4892,2.4893]}]]